User: anonymous   Login
Location: Unspecified
(0.0000°N, 0.0000°E)
Time: 06:17:49
(UTC+00:00)
Language:

AL-FARABI 1 - Orbit

View from above orbital plane
View from above orbital plane
View from above satellite
View from above satellite

Ground track
Ground track

The orbit data is extracted from the following two-line orbital elements,

1 42016U 17008BW  18116.57139332 +.00001688 +00000-0 +72128-4 0  9996
2 42016 097.4525 181.9226 0006226 186.3382 173.7777 15.24252551066185
Epoch (UTC): 26 April 2018 13:42:48
Eccentricity: 0.0006226
inclination: 97.4525°
perigee height: 489 km
apogee height: 497 km
right ascension of ascending node: 181.9226°
argument of perigee: 186.3382°
revolutions per day: 15.24252551
mean anomaly at epoch: 173.7777°
orbit number at epoch: 6618

The dashed part of the orbit path shows where the satellite is in the earth's shadow,  

DLR